This is the latest recevied weather packets stored in our database for station/object KB3VSP. If no packets are shown the sender has not sent any weather packets the latest 10 day(s).
| Time | Temp. | Humidity | Pressure | Rain* | Wind** | Luminosity | Snow |
|---|---|---|---|---|---|---|---|
| 1777860956 | 8.33° C | 67% | 1014.1 hPa | 0 mm | - | 0 W/m² | - |
| 1777860653 | 8.89° C | 61% | 1014.2 hPa | 0 mm | - | 0 W/m² | - |
| 1777860350 | 8.89° C | 61% | 1014 hPa | 0 mm | - | 0 W/m² | - |
| 1777860046 | 8.89° C | 61% | 1014.2 hPa | 0 mm | - | 0 W/m² | - |
| 1777859742 | 8.89° C | 60% | 1014 hPa | 0 mm | - | 0 W/m² | - |
| 1777859438 | 10° C | 62% | 1014.1 hPa | 0 mm | - | 0 W/m² | - |
| 1777859135 | 10° C | 57% | 1014.6 hPa | 0 mm | - | 0 W/m² | - |
| 1777858832 | 10° C | 58% | 1014 hPa | 0 mm | - | 0 W/m² | - |
| 1777858530 | 10.56° C | 54% | 1014 hPa | 0 mm | - | 0 W/m² | - |
| 1777858227 | 10.56° C | 53% | 1014 hPa | 0 mm | - | 0 W/m² | - |
| 1777857924 | 10.56° C | 53% | 1013.9 hPa | 0 mm | - | 0 W/m² | - |
| 1777857622 | 11.11° C | 52% | 1013.9 hPa | 0 mm | - | 0 W/m² | - |
| 1777857318 | 11.11° C | 52% | 1013.8 hPa | 0 mm | - | 0 W/m² | - |
| 1777857014 | 11.11° C | 52% | 1014.1 hPa | 0 mm | - | 0 W/m² | - |
| 1777856710 | 11.11° C | 51% | 1014 hPa | 0 mm | - | 0 W/m² | - |
| 1777856406 | 11.67° C | 51% | 1014 hPa | 0 mm | - | 0 W/m² | - |
| 1777856103 | 11.67° C | 51% | 1014.1 hPa | 0 mm | - | 0 W/m² | - |
| 1777855801 | 11.67° C | 50% | 1014 hPa | 0 mm | - | 0 W/m² | - |
| 1777855498 | 11.67° C | 49% | 1014.1 hPa | 0 mm | - | 0 W/m² | - |
| 1777855195 | 11.67° C | 49% | 1014 hPa | 0 mm | - | 0 W/m² | - |
| 1777854891 | 12.22° C | 49% | 1013.9 hPa | 0 mm | - | 0 W/m² | - |
| 1777854588 | 12.22° C | 49% | 1013.8 hPa | 0 mm | - | 0 W/m² | - |
| 1777854285 | 12.22° C | 48% | 1014 hPa | 0 mm | - | 0 W/m² | - |
| 1777853983 | 12.22° C | 48% | 1013.8 hPa | 0 mm | - | 0 W/m² | - |
| 1777853680 | 12.78° C | 47% | 1013.9 hPa | 0 mm | - | 1 W/m² | - |
* Rain latest hour (hover to see other rain measurements)
** Current wind speed in m/s (hover to see current wind gust speed)